EW7157 Weather Reports


Display with metric or nautical units.
time (UTC)temp
F
wind
direction
speed
MPH
gust
MPH
rain 1hr
in
rain 24hr
in
rain mn
in
humidity
%
barometer
mb
20260510065028 49 180 0.0 0.0 0.00 0.10 0.00 94 1032.6
20260510064044 49 180 0.0 0.0 0.00 0.10 0.00 95 1032.5
20260510063129 49 180 0.0 0.0 0.00 0.10 0.00 95 1032.5
20260510062030 49 180 0.0 0.0 0.00 0.10 0.00 95 1032.5
20260510060928 49 180 0.0 0.0 0.00 0.10 0.00 95 1032.5
20260510055929 49 180 0.0 0.0 0.00 0.10 0.00 95 1032.7
20260510054929 49 180 0.0 0.0 0.00 0.10 0.00 95 1032.7
20260510054827 49 180 0.0 0.0 0.00 0.10 0.00 95 1032.8
20260510053830 49 180 0.0 0.0 0.00 0.10 0.00 95 1033.0
20260510051828 49 180 0.0 0.0 0.00 0.10 0.00 94 1033.1
20260510050830 49 180 0.0 0.0 0.00 0.10 0.00 95 1033.0
20260510045828 49 180 0.0 0.0 0.00 0.10 0.00 95 1033.0
20260510044828 49 180 0.0 0.0 0.00 0.10 0.00 95 1033.2
20260510043829 49 180 0.0 0.0 0.00 0.10 0.00 95 1033.3
20260510042928 49 180 0.0 0.0 0.00 0.10 0.00 95 1033.3
20260510041927 49 180 0.0 0.0 0.00 0.10 0.00 95 1033.3
20260510040929 49 180 0.0 0.0 0.00 0.10 0.00 95 1033.4
20260510040017 50 180 0.0 0.0 0.00 0.10 0.00 94 1033.5
20260510035914 50 180 0.0 0.0 0.00 0.10 0.10 95 1033.5
20260510034916 50 180 0.0 0.0 0.00 0.10 0.10 95 1033.3
20260510033915 50 180 0.0 0.0 0.00 0.10 0.10 95 1033.2
20260510032917 50 180 0.0 0.0 0.00 0.10 0.10 93 1033.1
20260510031915 50 180 0.0 0.0 0.00 0.10 0.10 94 1033.0
20260510030915 50 180 0.0 0.0 0.00 0.10 0.10 94 1032.9
20260510025817 50 180 0.0 0.0 0.00 0.10 0.10 94 1032.9
20260510024817 51 180 0.0 0.0 0.00 0.10 0.10 94 1032.8
20260510023816 51 180 0.0 0.0 0.00 0.10 0.10 94 1032.9
20260510023716 51 180 0.0 0.0 0.00 0.10 0.10 94 1032.9
20260510022716 51 180 0.0 0.0 0.00 0.10 0.10 94 1032.9
20260510021814 51 180 0.0 0.0 0.00 0.10 0.10 94 1032.7
20260510020817 51 180 0.0 0.0 0.00 0.10 0.10 93 1032.9
20260510015816 51 180 0.0 0.0 0.00 0.10 0.10 93 1032.7
20260510014817 52 180 0.0 0.0 0.00 0.10 0.10 92 1032.8
20260510013816 52 180 0.0 0.0 0.00 0.10 0.10 94 1032.8
20260510012816 52 180 0.0 0.0 0.00 0.10 0.10 93 1032.8
20260510011817 53 180 0.0 0.0 0.00 0.10 0.10 92 1032.6
20260510010817 53 180 0.0 0.0 0.00 0.10 0.10 94 1032.8
20260510005914 53 180 0.0 0.0 0.00 0.10 0.10 93 1032.6
20260510005816 53 180 0.0 0.0 0.00 0.10 0.10 93 1032.6
20260510004915 53 180 0.0 0.0 0.00 0.10 0.10 93 1032.3
20260510003916 53 180 0.0 0.0 0.00 0.10 0.10 93 1032.4
20260510001915 54 180 0.0 0.0 0.00 0.10 0.10 92 1032.3
20260510001014 54 180 0.0 0.0 0.00 0.10 0.10 92 1032.3
20260509235917 54 180 0.0 0.0 0.00 0.10 0.10 91 1032.3
20260509235815 54 180 0.0 0.0 0.00 0.10 0.10 92 1032.3
20260509234817 55 180 0.0 0.0 0.00 0.10 0.10 91 1032.4
20260509233816 55 180 0.0 0.0 0.00 0.10 0.10 91 1032.4
20260509232816 55 180 0.0 0.0 0.00 0.10 0.10 90 1032.3
20260509225914 56 180 0.0 0.0 0.00 0.10 0.10 91 1032.2
20260509225817 56 180 0.0 0.0 0.00 0.10 0.10 91 1032.3
20260509224915 56 180 0.0 0.0 0.00 0.10 0.10 91 1032.2
20260509223918 56 180 0.0 0.0 0.00 0.10 0.10 91 1032.3
20260509222915 56 180 0.0 0.0 0.00 0.10 0.10 90 1032.3
20260509215915 56 180 0.0 0.0 0.01 0.10 0.10 89 1032.4
20260509215816 56 180 0.0 0.0 0.01 0.10 0.10 89 1032.3
20260509214817 56 180 0.0 0.0 0.09 0.10 0.10 88 1032.4
20260509212816 56 180 0.0 0.0 0.09 0.10 0.10 88 1032.7
20260509211915 56 180 0.0 0.0 0.09 0.10 0.10 89 1032.8
20260509210915 56 180 0.0 0.0 0.08 0.09 0.09 89 1032.6
20260509205918 56 180 0.0 0.0 0.09 0.09 0.09 85 1032.5
20260509205817 56 180 0.0 0.0 0.09 0.09 0.09 85 1032.5
20260509204816 57 180 0.0 0.0 0.01 0.01 0.01 84 1032.6
20260509202917 58 180 0.0 0.0 0.01 0.01 0.01 81 1032.4
20260509201915 58 180 0.0 0.0 0.01 0.01 0.01 82 1032.5
20260509200916 58 112 0.0 0.0 0.01 0.01 0.00 82 1032.3
20260509200816 58 112 0.0 0.0 0.00 0.00 0.00 82 1032.3
20260509195914 58 180 0.0 0.0 0.00 0.00 0.00 80 1032.6
20260509194918 58 135 0.0 2.0 0.00 0.00 0.00 79 1032.8
20260509193916 58 90 0.0 0.0 0.00 0.00 0.00 79 1032.8
20260509191915 58 135 0.0 1.0 0.00 0.00 0.00 80 1033.3
20260509190916 59 135 0.0 1.0 0.00 0.00 0.00 80 1033.5
20260509185917 59 180 0.0 0.0 0.00 0.00 0.00 79 1033.2
20260509184915 59 157 0.0 0.0 0.00 0.00 0.00 77 1033.3
20260509184816 59 163 1.0 2.0 0.00 0.00 0.00 77 1033.3
20260509183816 60 135 0.0 1.0 0.00 0.00 0.00 76 1033.5
20260509182817 60 135 0.0 0.0 0.00 0.00 0.00 74 1033.6
20260509181817 60 135 0.0 1.0 0.00 0.00 0.00 72 1033.7
20260509180915 61 180 0.0 1.0 0.00 0.00 0.00 71 1033.7
20260509175816 61 135 0.0 1.0 0.00 0.00 0.00 69 1033.6
20260509174816 61 112 0.0 0.0 0.00 0.00 0.00 68 1033.6
20260509171915 62 135 1.0 2.0 0.00 0.00 0.00 69 1033.6
20260509171816 62 135 0.0 2.0 0.00 0.00 0.00 69 1033.5
20260509170817 61 180 0.0 0.0 0.00 0.00 0.00 72 1033.8
20260509165817 61 124 1.0 1.0 0.00 0.00 0.00 74 1033.7
20260509165718 61 95 0.0 1.0 0.00 0.00 0.00 73 1033.5
20260509164815 61 90 0.0 0.0 0.00 0.00 0.00 74 1033.6
20260509163814 61 178 0.0 1.0 0.00 0.00 0.00 73 1033.6
20260509163716 61 176 0.0 2.0 0.00 0.00 0.00 73 1033.6
20260509162715 62 180 0.0 0.0 0.00 0.00 0.00 71 1033.6
20260509160716 64 337 0.0 0.0 0.00 0.00 0.00 65 1033.9
20260509155714 64 315 0.0 0.0 0.00 0.00 0.00 62 1033.9
20260509155615 64 315 0.0 0.0 0.00 0.00 0.00 61 1034.1
20260509154617 64 131 1.0 2.0 0.00 0.00 0.00 62 1034.1
20260509153716 64 135 0.0 2.0 0.00 0.00 0.00 65 1034.2
20260509152714 64 90 0.0 0.0 0.00 0.00 0.00 66 1034.4
20260509151715 64 90 0.0 0.0 0.00 0.00 0.00 66 1034.3
20260509150730 64 90 0.0 0.0 0.00 0.00 0.00 63 1034.3
20260509145815 64 90 0.0 0.0 0.00 0.00 0.00 64 1034.3
20260509144815 63 90 0.0 0.0 0.00 0.00 0.00 64 1034.2
20260509144716 63 90 0.0 0.0 0.00 0.00 0.00 64 1034.0
20260509143716 63 330 0.0 1.0 0.00 0.00 0.00 65 1034.1
20260509142716 63 247 0.0 0.0 0.00 0.00 0.00 65 1034.0
20260509141716 63 45 0.0 0.0 0.00 0.00 0.00 66 1034.1
20260509140717 63 360 0.0 0.0 0.00 0.00 0.00 68 1033.8
20260509135715 62 90 0.0 0.0 0.00 0.00 0.00 68 1033.8
20260509134714 61 90 0.0 2.0 0.00 0.00 0.00 68 1033.8
20260509133718 61 360 0.0 3.0 0.00 0.00 0.00 70 1033.9
20260509132815 61 225 0.0 2.0 0.00 0.00 0.00 71 1033.9
20260509131832 61 270 0.0 0.0 0.00 0.00 0.00 71 1033.8
20260509130914 60 318 0.0 2.0 0.00 0.00 0.00 72 1034.0
20260509125916 60 270 0.0 0.0 0.00 0.00 0.00 72 1034.0
20260509124914 59 26 0.0 5.0 0.00 0.00 0.00 73 1034.1
20260509124818 59 45 0.0 0.0 0.00 0.00 0.00 74 1034.0
20260509123915 58 45 0.0 1.0 0.00 0.00 0.00 74 1034.1
20260509122915 58 135 0.0 4.0 0.00 0.00 0.00 74 1034.1
20260509120916 56 360 0.0 0.0 0.00 0.00 0.00 75 1034.0
20260509120817 56 360 0.0 0.0 0.00 0.00 0.00 76 1034.1
20260509115816 56 360 0.0 0.0 0.00 0.00 0.00 76 1034.0
20260509113816 55 360 0.0 0.0 0.00 0.00 0.00 78 1034.2
20260509112816 55 22 0.0 1.0 0.00 0.00 0.00 78 1034.0
20260509111815 55 270 0.0 0.0 0.00 0.00 0.00 78 1034.0
20260509110815 54 270 0.0 0.0 0.00 0.00 0.00 77 1034.0
20260509105815 54 270 0.0 0.0 0.00 0.00 0.00 76 1033.9
20260509101915 54 360 0.0 0.0 0.00 0.00 0.00 75 1033.9
20260509100916 54 360 0.0 0.0 0.00 0.00 0.00 74 1033.9
20260509095916 54 360 0.0 0.0 0.00 0.00 0.00 74 1033.8
20260509094917 54 360 0.0 0.0 0.00 0.00 0.00 73 1033.8
20260509093916 54 360 0.0 0.0 0.00 0.00 0.00 72 1033.8
20260509092916 54 360 0.0 0.0 0.00 0.00 0.00 72 1033.8
20260509091915 55 360 0.0 0.0 0.00 0.00 0.00 71 1033.9
20260509085915 55 360 0.0 1.0 0.00 0.00 0.00 70 1033.9
20260509084915 55 360 0.0 0.0 0.00 0.00 0.00 70 1033.9
20260509083915 55 360 0.0 0.0 0.00 0.00 0.00 69 1034.1
20260509082915 55 360 0.0 0.0 0.00 0.00 0.00 68 1034.1
20260509081914 55 360 0.0 0.0 0.00 0.00 0.00 68 1034.0
20260509081815 55 360 0.0 0.0 0.00 0.00 0.00 68 1033.9
20260509080815 54 45 0.0 0.0 0.00 0.00 0.00 69 1034.1
20260509074914 54 135 0.0 0.0 0.00 0.00 0.00 70 1034.0
20260509073915 54 135 0.0 0.0 0.00 0.00 0.00 69 1034.0
20260509073816 54 135 0.0 0.0 0.00 0.00 0.00 69 1034.1
20260509072814 54 180 0.0 0.0 0.00 0.00 0.00 69 1034.2
20260509070914 55 180 0.0 0.0 0.00 0.00 0.00 69 1034.2
20260509065916 55 180 0.0 0.0 0.00 0.00 0.00 68 1034.4